STARLINK-35642 (66398 NORAD) Tracking and Keplerian Element Data

This shows tracking and keplerian element data for the satellite.

Feedback or suggestion? Click here.




ElementValue
Catalog66398
NameSTARLINK-35642
Epoch Orbit748
Epoch Day353.93924154
Epoch Year2025
RAAN230.2656
Inclination53.1579
Eccentricity0.0002222
Argument of Perigee100.9474
Mean Anonmoly259.1781
Mean Motion15.39641043
Decay Rate0.00024285
L11 66398U 25257U 25353.93924154 .00024285 00000+0 61474-3 0 9993
L22 66398 53.1579 230.2656 0002222 100.9474 259.1781 15.39641043 7489



Live tracking and technical data element details for STARLINK-35642 (NORAD 66398). STARLINK-35642 can be tracked NOW for your location showing map with azimuth and elevation plus other details from your city location.







IsCatalogInMostPopularTable: catalog: 66398, numindb: 10
Update: records affected: 1



GetName: 66398 STARLINK-35642

Hit Count: updated at: Mon, 20 Apr 2026 10:26:19 GMT